Home > Weather > Portugal > Setúbal > Past weeks

Flag for Portugal Weather past 2 weeks in Setúbal, Portugal

57 °F

Passing clouds.

Feels Like: 57 °F
Forecast: N/A
Wind: 1 mph from North

Location: Lisbon Portela Airport

Current Time: Dec 1, 2015 at 6:33:54 PM

Latest Report: Dec 1, 2015 at 6:00 PM

Visibility: N/A

Pressure: 30.39 "Hg

Humidity: 82%

Dew point: 52 °F

Location of SetúbalLocation

Historic Weather in Setúbal — Graph


Setúbal temperature yesterday

Maximum temperature yesterday: 61 °F (at 3:30 PM)
Minimum temperature yesterday: 45 °F (at 6:00 AM)
Average temperature yesterday: 53 °F

Past Weeks' High & Low Weather Summary

High70 °F (Nov 20, 2:30 PM)100% (Nov 18, 4:00 AM)30.54 "Hg (Nov 18, 4:00 AM)
Low39 °F (Nov 24, 7:30 AM)48% (Nov 24, 1:30 PM)30.04 "Hg (Nov 22, 4:30 PM)
Average56 °F77%30.32 "Hg
* Reported Nov 16 5:00 PM — Dec 1 5:30 PM, Setúbal, Weather by CustomWeather, © 2015

Note: Actual official high and low records may vary slightly from our data, if they occured in-between our weather recording intervals... More about our weather records


Setúbal weather history for previous 24 hours

Time TempWeatherWind HumidityBarometerVisibility
5:30 PM
Tue, Dec 1
57 °FPartly cloudy.3 mph82%30.39 "HgN/A
5:00 PM57 °FBroken clouds.2 mph82%30.39 "HgN/A
4:30 PM57 °FPartly sunny.3 mph82%30.39 "HgN/A
4:00 PM57 °FPartly sunny.2 mph82%30.36 "HgN/A
3:30 PM57 °FPartly sunny.3 mph82%30.36 "HgN/A
3:00 PM57 °FPartly sunny.2 mph77%30.36 "HgN/A
2:30 PM57 °FPartly sunny.5 mph77%30.39 "HgN/A
2:00 PM57 °FBroken clouds.3 mph77%30.39 "HgN/A
1:30 PM55 °FPartly sunny.3 mph77%30.39 "HgN/A
1:00 PM54 °FPartly sunny.5 mph82%30.39 "HgN/A
12:30 PM54 °FPartly sunny.5 mph82%30.42 "HgN/A
12:00 PM54 °FScattered clouds.5 mph77%30.42 "HgN/A
11:30 AM55 °FPartly sunny.6 mph77%30.42 "HgN/A
11:00 AM54 °FScattered clouds.6 mph82%30.42 "HgN/A
10:30 AM52 °FScattered clouds.6 mph82%30.45 "HgN/A
10:00 AM52 °FPassing clouds.7 mph77%30.45 "HgN/A
9:30 AM50 °FPassing clouds.6 mph82%30.42 "HgN/A
9:00 AM48 °FPassing clouds.6 mph82%30.42 "HgN/A
8:30 AM48 °FPassing clouds.5 mph82%30.42 "HgN/A
8:00 AM46 °FPassing clouds.2 mph87%30.42 "HgN/A
7:30 AM48 °FPassing clouds.7 mph76%30.42 "HgN/A
7:00 AM46 °FPassing clouds.6 mph82%30.39 "HgN/A
6:30 AM46 °FPassing clouds.6 mph87%30.42 "HgN/A
6:00 AM48 °FPassing clouds.7 mph76%30.42 "HgN/A
5:30 AM46 °FPassing clouds.3 mph87%30.42 "HgN/A
5:00 AM48 °FPassing clouds.6 mph82%30.42 "HgN/A
4:30 AM48 °FPassing clouds.5 mph82%30.42 "HgN/A
4:00 AM48 °FPassing clouds.6 mph82%30.42 "HgN/A
3:30 AM50 °FClear.7 mph76%30.42 "Hg10 mi
3:00 AM48 °FClear.6 mph82%30.45 "Hg10 mi
2:30 AM48 °FClear.3 mph82%30.45 "Hg10 mi
2:00 AM48 °FClear.3 mph82%30.45 "Hg10 mi
1:30 AM50 °FClear.5 mph76%30.45 "Hg10 mi
12:30 AM50 °FClear.5 mph76%30.45 "Hg10 mi
12:00 AM54 °FPassing clouds.5 mph72%30.45 "HgN/A
11:30 PM
Mon, Nov 30
50 °FClear.5 mph76%30.45 "Hg10 mi
11:00 PM54 °FPassing clouds.6 mph67%30.45 "HgN/A
10:30 PM54 °FClear.5 mph67%30.45 "Hg10 mi
10:00 PM54 °FClear.6 mph67%30.45 "Hg10 mi
9:30 PM52 °FClear.5 mph72%30.45 "Hg10 mi
9:00 PM54 °FClear.5 mph67%30.45 "Hg10 mi
8:30 PM54 °FClear.5 mph67%30.45 "Hg10 mi
8:00 PM55 °FClear.2 mph63%30.45 "Hg10 mi
7:30 PM55 °FClear.3 mph63%30.45 "Hg10 mi
7:00 PM54 °FClear.3 mph67%30.45 "Hg10 mi
6:30 PM52 °FClear.2 mph72%30.45 "Hg10 mi
6:00 PM55 °FClear.2 mph67%30.45 "Hg10 mi
Weather by CustomWeather, © 2015

See weather overviewHow to use our weather pages